Weather History for Barnwell, SC

Change the Weather History Date:

Friday, May 24, 2013

  Actual Average (KOGB) Record (KOGB)
Temperature  
Mean Temperature 70 °F 74 °F  
Max Temperature 82 °F 85 °F 98 °F (1953)
Min Temperature 59 °F 62 °F 48 °F (2002)
Degree Days  
Heating Degree Days 0 0  
Month to date heating degree days 10  
Since 1 July heating degree days 2327  
Cooling Degree Days 6 9  
Month to date cooling degree days 150  
Year to date cooling degree days 235  
Growing Degree Days 20 (Base 50)    
Moisture  
Dew Point 51 °F    
Average Humidity 50    
Maximum Humidity 82    
Minimum Humidity 21    
Precipitation  
Precipitation 0.00 in 0.12 in 1.74 in (1976)
Month to date precipitation 2.18  
Year to date precipitation 16.58  
Sea Level Pressure  
Sea Level Pressure 30.02 in    
Wind  
Wind Speed 6 mph (NW)    
Max Wind Speed 20 mph    
Max Gust Speed 24 mph    
Visibility 10 miles    
Events      
T = Trace of Precipitation, MM = Missing Value Source: NWS Daily Summary

Daily Weather History Graph

Daily Weather History Graph

Search for Another Location

Airport:

Trip Planner

Search our weather history database for the weather conditions in past years. The results will help you decide how hot, cold, wet, or windy it might be!

Date:

Astronomy

May. 24, 2013 Rise Set
Actual Time 6:20 AM EDT 8:25 PM EDT
Civil Twilight 5:52 AM EDT 8:53 PM EDT
Nautical Twilight 5:18 AM EDT 9:27 PM EDT
Astronomical Twilight 4:41 AM EDT 10:03 PM EDT
Moon 8:06 PM EDT (5/24) 5:48 AM EDT (5/24)
Length of Visible Light 15h 00m
Length of Day
14h 04m
Full, 100% of the Moon is Illuminated
May 24
Full
May 25
Full
May 31
Last Quarter
Jun 8
New
Jun 16
First Quarter

Hourly Weather History & Observations

Time (EDT) Temp. Heat Index Dew Point Humidity Pressure Visibility Wind Dir Wind Speed Gust Speed Precip Events Conditions
12:15 AM 69.8 °F - 62.6 °F 78% 29.91 in 10.0 mi Calm Calm - N/A   Clear
12:35 AM 69.8 °F - 62.6 °F 78% 29.92 in 10.0 mi West 4.6 mph - N/A   Clear
12:55 AM 71.6 °F - 62.6 °F 73% 29.92 in 10.0 mi West 4.6 mph - N/A   Clear
1:15 AM 71.6 °F - 60.8 °F 69% 29.92 in 10.0 mi WNW 5.8 mph - N/A   Clear
1:35 AM 71.6 °F - 60.8 °F 69% 29.92 in 10.0 mi WNW 8.1 mph - N/A   Clear
1:55 AM 71.6 °F - 59.0 °F 64% 29.92 in 10.0 mi West 8.1 mph - N/A   Clear
2:15 AM 71.6 °F - 59.0 °F 64% 29.92 in 10.0 mi WNW 5.8 mph - N/A   Clear
2:35 AM 71.6 °F - 57.2 °F 60% 29.92 in 10.0 mi West 8.1 mph - N/A   Clear
2:55 AM 71.6 °F - 57.2 °F 60% 29.92 in 10.0 mi WNW 5.8 mph - N/A   Clear
3:15 AM 69.8 °F - 57.2 °F 64% 29.92 in 10.0 mi WNW 6.9 mph - N/A   Clear
3:35 AM 69.8 °F - 55.4 °F 60% 29.92 in 10.0 mi WNW 3.5 mph - N/A   Clear
3:55 AM 69.8 °F - 55.4 °F 60% 29.92 in 10.0 mi Calm Calm - N/A   Clear
4:15 AM 68.0 °F - 55.4 °F 64% 29.92 in 10.0 mi Calm Calm - N/A   Clear
4:35 AM 66.2 °F - 55.4 °F 68% 29.92 in 10.0 mi NW 3.5 mph - N/A   Clear
4:55 AM 66.2 °F - 55.4 °F 68% 29.92 in 10.0 mi NW 3.5 mph - N/A   Clear
5:15 AM 66.2 °F - 55.4 °F 68% 29.93 in 10.0 mi Calm Calm - N/A   Clear
5:35 AM 64.4 °F - 55.4 °F 73% 29.94 in 10.0 mi Calm Calm - N/A   Clear
5:55 AM 64.4 °F - 55.4 °F 73% 29.94 in 10.0 mi Calm Calm - N/A   Clear
6:15 AM 64.4 °F - 55.4 °F 73% 29.95 in 10.0 mi Calm Calm - N/A   Clear
6:35 AM 62.6 °F - 55.4 °F 77% 29.95 in 10.0 mi Calm Calm - N/A   Clear
6:55 AM 60.8 °F - 55.4 °F 82% 29.95 in 10.0 mi Calm Calm - N/A   Clear
7:15 AM 64.4 °F - 57.2 °F 77% 29.96 in 10.0 mi Calm Calm - N/A   Clear
7:35 AM 64.4 °F - 57.2 °F 77% 29.97 in 10.0 mi Calm Calm - N/A   Clear
7:55 AM 66.2 °F - 57.2 °F 73% 29.98 in 10.0 mi West 3.5 mph - N/A   Clear
8:15 AM 69.8 °F - 57.2 °F 64% 29.98 in 10.0 mi WNW 5.8 mph - N/A   Clear
8:35 AM 69.8 °F - 57.2 °F 64% 29.98 in 10.0 mi WNW 6.9 mph - N/A   Clear
8:55 AM 71.6 °F - 57.2 °F 60% 29.98 in 10.0 mi NW 9.2 mph - N/A   Clear
9:15 AM 71.6 °F - 57.2 °F 60% 29.99 in 10.0 mi NW 11.5 mph 16.1 mph N/A   Clear
9:35 AM 73.4 °F - 57.2 °F 57% 30.00 in 10.0 mi NW 10.4 mph - N/A   Clear
9:55 AM 73.4 °F - 57.2 °F 57% 30.01 in 10.0 mi NW 9.2 mph - N/A   Clear
10:15 AM 75.2 °F - 57.2 °F 53% 30.02 in 10.0 mi NW 8.1 mph 16.1 mph N/A   Clear
10:35 AM 75.2 °F - 55.4 °F 50% 30.02 in 10.0 mi NW 10.4 mph 17.3 mph N/A   Clear
10:55 AM 75.2 °F - 57.2 °F 53% 30.02 in 10.0 mi NW 11.5 mph - N/A   Clear
11:15 AM 77.0 °F - 55.4 °F 47% 30.02 in 10.0 mi NNW 10.4 mph - N/A   Clear
11:35 AM 78.8 °F - 55.4 °F 44% 30.02 in 10.0 mi NNW 15.0 mph 21.9 mph N/A   Clear
11:55 AM 78.8 °F - 53.6 °F 42% 30.03 in 10.0 mi NW 17.3 mph 23.0 mph N/A   Clear
12:15 PM 78.8 °F - 53.6 °F 42% 30.03 in 10.0 mi NW 16.1 mph 23.0 mph N/A   Clear
12:35 PM 80.6 °F - 51.8 °F 37% 30.03 in 10.0 mi North 12.7 mph 20.7 mph N/A   Clear
12:55 PM 80.6 °F - 51.8 °F 37% 30.03 in 10.0 mi North 19.6 mph 24.2 mph N/A   Partly Cloudy
1:15 PM 80.6 °F - 51.8 °F 37% 30.03 in 10.0 mi North 17.3 mph 20.7 mph N/A   Clear
1:35 PM 82.4 °F - 51.8 °F 35% 30.03 in 10.0 mi North 13.8 mph 20.7 mph N/A   Clear
1:55 PM 82.4 °F 81.4 °F 53.6 °F 37% 30.03 in 10.0 mi North 12.7 mph 19.6 mph N/A   Clear
2:15 PM 82.4 °F - 51.8 °F 35% 30.03 in 10.0 mi North 16.1 mph 19.6 mph N/A   Clear
2:35 PM 82.4 °F - 51.8 °F 35% 30.03 in 10.0 mi NNW 11.5 mph 21.9 mph N/A   Clear
2:55 PM 82.4 °F - 48.2 °F 30% 30.03 in 10.0 mi North 19.6 mph - N/A   Clear
3:15 PM 82.4 °F - 46.4 °F 28% 30.04 in 10.0 mi NNW 18.4 mph 23.0 mph N/A   Clear
3:35 PM 82.4 °F - 46.4 °F 28% 30.04 in 10.0 mi NNW 11.5 mph 21.9 mph N/A   Clear
3:55 PM 82.4 °F - 48.2 °F 30% 30.04 in 10.0 mi North 15.0 mph 20.7 mph N/A   Clear
4:15 PM 82.4 °F - 48.2 °F 30% 30.04 in 10.0 mi NNE 16.1 mph 21.9 mph N/A   Clear
4:35 PM 82.4 °F - 46.4 °F 28% 30.05 in 10.0 mi North 13.8 mph 20.7 mph N/A   Clear
4:55 PM 82.4 °F - 44.6 °F 26% 30.05 in 10.0 mi NNW 13.8 mph 18.4 mph N/A   Clear
5:15 PM 82.4 °F - 41.0 °F 23% 30.05 in 10.0 mi NW 11.5 mph 21.9 mph N/A   Clear
5:35 PM 82.4 °F - 42.8 °F 25% 30.06 in 10.0 mi North 13.8 mph 17.3 mph N/A   Clear
5:55 PM 80.6 °F - 37.4 °F 21% 30.07 in 10.0 mi North 12.7 mph 21.9 mph N/A   Clear
6:15 PM 80.6 °F - 37.4 °F 21% 30.07 in 10.0 mi NNW 9.2 mph 17.3 mph N/A   Clear
6:35 PM 80.6 °F - 39.2 °F 23% 30.07 in 10.0 mi NNW 10.4 mph 17.3 mph N/A   Clear
6:55 PM 78.8 °F - 41.0 °F 26% 30.08 in 10.0 mi North 8.1 mph - N/A   Clear
7:15 PM 78.8 °F - 44.6 °F 30% 30.08 in 10.0 mi NNW 4.6 mph - N/A   Clear
7:35 PM 77.0 °F - 42.8 °F 29% 30.09 in 10.0 mi NNW 6.9 mph - N/A   Clear
7:55 PM 75.2 °F - 41.0 °F 29% 30.10 in 10.0 mi NW 6.9 mph - N/A   Clear
8:15 PM 73.4 °F - 37.4 °F 27% 30.11 in 10.0 mi NNW 5.8 mph - N/A   Clear
8:35 PM 71.6 °F - 37.4 °F 29% 30.12 in 10.0 mi NNW 5.8 mph - N/A   Clear
8:55 PM 69.8 °F - 37.4 °F 31% 30.12 in 10.0 mi Calm Calm - N/A   Clear
9:15 PM 68.0 °F - 39.2 °F 35% 30.13 in 10.0 mi Calm Calm - N/A   Clear
9:35 PM 66.2 °F - 39.2 °F 37% 30.14 in 10.0 mi Calm Calm - N/A   Clear
9:55 PM 64.4 °F - 42.8 °F 45% 30.15 in 10.0 mi Calm Calm - N/A   Clear
10:15 PM 60.8 °F - 42.8 °F 52% 30.17 in 10.0 mi Calm Calm - N/A   Clear
10:35 PM 60.8 °F - 44.6 °F 55% 30.18 in 10.0 mi Calm Calm - N/A   Clear
10:55 PM 59.0 °F - 44.6 °F 59% 30.18 in 10.0 mi Calm Calm - N/A   Clear
11:15 PM 62.6 °F - 44.6 °F 52% 30.19 in 10.0 mi Calm Calm - N/A   Clear
11:35 PM 59.0 °F - 44.6 °F 59% 30.19 in 10.0 mi Calm Calm - N/A   Clear
11:55 PM 60.8 °F - 44.6 °F 55% 30.19 in 10.0 mi Calm Calm - N/A   Clear